Wellsville, NY

7:56 PM EDT on May 26, 2017 (GMT -0400)
Wellsville Municipal-Tarantine

Weather History for KELZ - December, 2013

Change the Weather History Date:

Wednesday, December 25, 2013

  Actual Average (KDSV) Record (KDSV)
Temperature  
Mean Temperature 11 °F -  
Max Temperature 19 °F 35 °F 62 °F (1965)
Min Temperature 3 °F 18 °F -17 °F (1980)
Degree Days  
Heating Degree Days 54    
Moisture  
Dew Point 4 °F    
Average Humidity 69    
Maximum Humidity 85    
Minimum Humidity 52    
Precipitation  
Precipitation 0.00 in - - ()
Sea Level Pressure  
Sea Level Pressure 30.40 in    
Wind  
Wind Speed 8 mph (SSW)    
Max Wind Speed 14 mph    
Max Gust Speed 21 mph    
Visibility 10 miles    
Events      
Averages and records for this station are not official NWS values.
T = Trace of Precipitation, MM = Missing Value Source: NWS Daily Summary

Daily Weather History Graph

Daily Weather History Graph

Search for Another Location

Airport or City:

Trip Planner

Search our weather history database for the weather conditions in past years. The results will help you decide how hot, cold, wet, or windy it might be!

Date:

Astronomy

Dec. 25, 2013 Rise Set
Actual Time 7:38 AM EST 4:45 PM EST
Civil Twilight 7:07 AM EST 5:17 PM EST
Nautical Twilight 6:31 AM EST 5:52 PM EST
Astronomical Twilight 5:57 AM EST 6:26 PM EST
Moon No Moon Rise 11:53 AM EST (12/25)
Length of Visible Light 10h 10m
Length of Day
9h 06m
Waning Gibbous, 49% of the Moon is Illuminated
Dec 25
Waning Gibbous
Jan 1
New
Jan 7
First Quarter
Jan 15
Full
Jan 24
Last Quarter

Hourly Weather History & Observations

Time (EST) Temp. Windchill Dew Point Humidity Pressure Visibility Wind Dir Wind Speed Gust Speed Precip Events Conditions
12:29 AM 8.6 °F -7.7 °F 1.4 °F 73% 30.34 in 10.0 mi NW 13.8 mph - N/A   Partly Cloudy
12:56 AM 8.1 °F -7.7 °F 1.9 °F 76% 30.46 in 10.0 mi NW 12.7 mph - N/A   Clear
1:56 AM 6.1 °F -4.3 °F 1.0 °F 80% 30.46 in 10.0 mi NW 5.8 mph - N/A   Clear
2:56 AM 6.1 °F -4.3 °F 1.0 °F 80% 30.47 in 10.0 mi NNW 5.8 mph - N/A   Clear
3:56 AM 5.0 °F -5.6 °F -0.0 °F 80% 30.48 in 10.0 mi WNW 5.8 mph - N/A   Clear
4:03 AM 3.2 °F -9.1 °F -0.4 °F 85% 30.35 in 10.0 mi WNW 6.9 mph - N/A   Scattered Clouds
4:56 AM 3.9 °F -9.4 °F -0.9 °F 80% 30.49 in 10.0 mi West 8.1 mph - N/A   Clear
5:56 AM 3.9 °F - -0.9 °F 80% 30.49 in 10.0 mi Calm Calm - N/A   Clear
6:56 AM 3.9 °F - -0.0 °F 84% 30.50 in 10.0 mi Calm Calm - N/A   Clear
7:56 AM 6.1 °F - 1.0 °F 80% 30.49 in 10.0 mi Calm Calm - N/A   Clear
8:56 AM 7.0 °F - 3.0 °F 84% 30.51 in 10.0 mi Calm Calm - N/A   Clear
9:56 AM 10.0 °F 0.4 °F 6.1 °F 84% 30.51 in 10.0 mi SW 5.8 mph - N/A   Partly Cloudy
10:56 AM 12.9 °F 6.9 °F 6.1 °F 74% 30.49 in 10.0 mi SSE 3.5 mph - N/A   Mostly Cloudy
11:56 AM 14.0 °F 3.9 °F 3.0 °F 62% 30.46 in 10.0 mi South 6.9 mph - N/A   Overcast
12:56 PM 17.1 °F 5.8 °F 3.9 °F 56% 30.41 in 10.0 mi South 9.2 mph - N/A   Overcast
1:56 PM 18.0 °F 6.1 °F 3.0 °F 52% 30.40 in 10.0 mi South 10.4 mph - N/A   Scattered Clouds
2:56 PM 19.0 °F 8.2 °F 3.9 °F 52% 30.38 in 10.0 mi South 9.2 mph - N/A   Overcast
3:56 PM 19.9 °F 10.1 °F 5.0 °F 52% 30.35 in 10.0 mi South 8.1 mph - N/A   Overcast
4:56 PM 19.0 °F 9.0 °F 3.9 °F 52% 30.35 in 10.0 mi South 8.1 mph - N/A   Scattered Clouds
5:56 PM 19.0 °F 11.1 °F 5.0 °F 54% 30.34 in 10.0 mi SSE 5.8 mph - N/A   Overcast
6:56 PM 19.0 °F 7.5 °F 6.1 °F 57% 30.33 in 10.0 mi South 10.4 mph 17.3 mph N/A   Overcast
7:56 PM 19.0 °F 9.0 °F 7.0 °F 59% 30.32 in 10.0 mi SSE 8.1 mph - N/A   Overcast
8:56 PM 19.9 °F 9.3 °F 8.1 °F 60% 30.29 in 10.0 mi SSE 9.2 mph 20.7 mph N/A   Overcast
9:56 PM 19.9 °F 8.6 °F 8.1 °F 60% 30.27 in 10.0 mi South 10.4 mph 17.3 mph N/A   Overcast
10:56 PM 19.9 °F 7.9 °F 9.0 °F 62% 30.26 in 10.0 mi South 11.5 mph 18.4 mph N/A   Overcast
11:56 PM 19.9 °F 9.3 °F 10.9 °F 68% 30.24 in 10.0 mi South 9.2 mph - N/A   Overcast